HAWK-10A

导读

HAWK-10A是一颗由美国发射的卫星,于2024年8月16日北京时间8时成功发射入轨。作为美国航天领域的最新发射任务,该卫星属于小尺寸、轻质量的纳卫星范畴,其搭载了先进的对地观测载荷,可获取高分辨率的遥感数据,服务于地理测绘、环境监测等多个领域,进一步补充了美国低轨卫星星座的观测能力。

Basic Information
目录编号:
60540
目录名称:
HAWK-10A
国际标识:
2024-149CA
轨道中心:
EARTH
卫星名称:
HAWK-10A
卫星全名:
HAWK-10A
卫星状态:
在轨 (已飞行749 天)
发射日期:
2024-08-16 UTC
国别 :
美国 (US)
星等 :
--
Orbit Information
数据来源 国际轨道数据
星历时间: 2026-09-02T19:00:30+0800
1天前
查看轨道信息
半长轴: 6955.235km
偏心率: 0.0003764
轨道倾角: 97.684°
近地点辐角 152.707°
升交点赤经 320.030°
平近点角 207.435°
近地点: 574.48km
远地点: 579.716km
周期: 96.212分钟
每日圈数: 14.967013
Detailed Information
使用方式:
暂无
2D Orbit Map
3D Orbit Map
Orbit Altitude Analysis Chart
Orbit Inclination Analysis Chart
Orbit Comprehensive Analysis Chart
View Comprehensive Chart
Conjunction Data List
Event ID Objects TCA Miss Dist (km) Collision Risk Probability Collision Risk Index (CRI) Action
CDM_260827-190705-648706-054023
HAWK-10A (60540)
2026-08-27T
19:07:12+0000
2.446 km
极远距离
1.441131E-6 低风险 0.38
CDM_260827-205006-054006-430622
HAWK-10A (60540)
2026-08-27T
20:50:47+0000
2.885 km
极远距离
1.416572E-6 低风险 0.38